• în România
  • Lista ţărilor
  • Pe 7 zile
  • Temperatura apei
  • Hartă satelitară
  • Meteo pe hartă
  • Widget-uri
  • user-avatar
    Intrare

    Meteo pe oră la Kitzbuhel

    Astăzi, 23 Iunie, Vineri

    Timp Temperatura Precipitaţii Vânt Presiune Umiditate
    00:00 +17°C° 0,5 mm 2 m/s 678 mmHg 82%
    01:00 +16°C° 0,5 mm 2 m/s 678 mmHg 83%
    02:00 +16°C° 0,3 mm 2 m/s 678 mmHg 82%
    03:00 +16°C° 0,3 mm 3 m/s 678 mmHg 81%
    04:00 +16°C° 0,3 mm 3 m/s 678 mmHg 80%
    05:00 +18°C° 0,3 mm 3 m/s 678 mmHg 80%
    06:00 +19°C° 0,3 mm 2 m/s 679 mmHg 79%
    07:00 +20°C° 0,3 mm 2 m/s 679 mmHg 79%
    08:00 +22°C° 0,2 mm 3 m/s 679 mmHg 72%
    09:00 +24°C° 0,2 mm 3 m/s 680 mmHg 65%
    10:00 +26°C° 0,2 mm 4 m/s 680 mmHg 58%
    11:00 +26°C° 0,7 mm 4 m/s 680 mmHg 61%
    12:00 +26°C° 0,7 mm 4 m/s 680 mmHg 64%
    13:00 +26°C° 0,7 mm 4 m/s 680 mmHg 66%
    14:00 +25°C° 1 mm 3 m/s 680 mmHg 70%
    15:00 +25°C° 1 mm 3 m/s 680 mmHg 74%
    16:00 +24°C° 1 mm 2 m/s 680 mmHg 77%
    17:00 +23°C° 0,6 mm 2 m/s 680 mmHg 82%
    18:00 +22°C° 0,6 mm 1 m/s 680 mmHg 86%
    19:00 +22°C° 0,6 mm 1 m/s 680 mmHg 91%
    20:00 +20°C° 0,2 mm 1 m/s 680 mmHg 92%
    21:00 +18°C° 0,2 mm 1 m/s 679 mmHg 94%
    22:00 +15°C° 0,2 mm 1 m/s 679 mmHg 95%
    23:00 +15°C° 0 mm 1 m/s 679 mmHg 96%

    Mâine, 24 Iunie, Sâmbătă

    Timp Temperatura Precipitaţii Vânt Presiune Umiditate
    00:00 +14°C° 0 mm 1 m/s 679 mmHg 96%
    01:00 +14°C° 0 mm 1 m/s 680 mmHg 96%
    02:00 +14°C° 0 mm 1 m/s 679 mmHg 96%
    03:00 +14°C° 0 mm 1 m/s 679 mmHg 96%
    04:00 +13°C° 0 mm 1 m/s 679 mmHg 96%
    05:00 +15°C° 0 mm 1 m/s 679 mmHg 92%
    06:00 +16°C° 0 mm 0 m/s 680 mmHg 88%
    07:00 +18°C° 0 mm 0 m/s 680 mmHg 85%
    08:00 +20°C° 0 mm 0 m/s 680 mmHg 79%
    09:00 +23°C° 0 mm 1 m/s 681 mmHg 73%
    10:00 +25°C° 0 mm 1 m/s 681 mmHg 67%
    11:00 +25°C° 0,3 mm 1 m/s 680 mmHg 67%
    12:00 +25°C° 0,3 mm 2 m/s 680 mmHg 68%
    13:00 +26°C° 0,3 mm 2 m/s 680 mmHg 68%
    14:00 +25°C° 0,7 mm 2 m/s 680 mmHg 71%
    15:00 +25°C° 0,7 mm 2 m/s 679 mmHg 73%
    16:00 +25°C° 0,7 mm 2 m/s 679 mmHg 76%
    17:00 +23°C° 1,6 mm 2 m/s 679 mmHg 81%
    18:00 +22°C° 1,6 mm 1 m/s 679 mmHg 87%
    19:00 +21°C° 1,6 mm 1 m/s 679 mmHg 92%
    20:00 +20°C° 2,1 mm 1 m/s 679 mmHg 94%
    21:00 +17°C° 2,1 mm 0 m/s 679 mmHg 95%
    22:00 +16°C° 2,1 mm 0 m/s 678 mmHg 96%
    23:00 +15°C° 1,2 mm 0 m/s 678 mmHg 97%

    Poimâine, 25 Iunie, Duminică

    Timp Temperatura Precipitaţii Vânt Presiune Umiditate
    00:00 +15°C° 1,2 mm 0 m/s 678 mmHg 97%
    01:00 +14°C° 1,2 mm 0 m/s 678 mmHg 97%
    02:00 +14°C° 0,5 mm 0 m/s 678 mmHg 97%
    03:00 +14°C° 0,5 mm 0 m/s 677 mmHg 97%
    04:00 +14°C° 0,5 mm 0 m/s 677 mmHg 97%
    05:00 +16°C° 0,3 mm 1 m/s 677 mmHg 95%
    06:00 +18°C° 0,3 mm 1 m/s 678 mmHg 93%
    07:00 +19°C° 0,3 mm 1 m/s 678 mmHg 90%
    08:00 +20°C° 0,5 mm 1 m/s 678 mmHg 86%
    09:00 +20°C° 0,5 mm 1 m/s 678 mmHg 82%
    10:00 +21°C° 0,5 mm 1 m/s 678 mmHg 78%
    11:00 +20°C° 0,7 mm 2 m/s 678 mmHg 78%
    12:00 +21°C° 0,7 mm 2 m/s 678 mmHg 77%
    13:00 +21°C° 0,7 mm 2 m/s 678 mmHg 77%
    14:00 +21°C° 0,7 mm 2 m/s 678 mmHg 78%
    15:00 +21°C° 0,7 mm 2 m/s 678 mmHg 79%
    16:00 +21°C° 0,7 mm 2 m/s 678 mmHg 79%
    17:00 +20°C° 0,3 mm 2 m/s 678 mmHg 83%
    18:00 +19°C° 0,3 mm 2 m/s 678 mmHg 86%
    19:00 +19°C° 0,3 mm 1 m/s 678 mmHg 89%
    20:00 +16°C° 0 mm 1 m/s 678 mmHg 92%
    21:00 +15°C° 0 mm 1 m/s 678 mmHg 95%
    22:00 +13°C° 0 mm 1 m/s 678 mmHg 98%
    23:00 +13°C° 0 mm 1 m/s 678 mmHg 98%

    26 Iunie, Luni

    Timp Temperatura Precipitaţii Vânt Presiune Umiditate
    00:00 +12°C° 0 mm 1 m/s 678 mmHg 98%
    01:00 +12°C° 0 mm 1 m/s 678 mmHg 98%
    02:00 +12°C° 0 mm 1 m/s 677 mmHg 97%
    03:00 +10°C° 0 mm 0 m/s 677 mmHg 97%
    04:00 +9°C° 0 mm 0 m/s 677 mmHg 97%
    05:00 +12°C° 0 mm 0 m/s 677 mmHg 94%
    06:00 +14°C° 0 mm 0 m/s 678 mmHg 90%
    07:00 +16°C° 0 mm 0 m/s 679 mmHg 86%
    08:00 +20°C° 0 mm 1 m/s 679 mmHg 80%
    09:00 +21°C° 0 mm 1 m/s 679 mmHg 73%
    10:00 +23°C° 0 mm 1 m/s 679 mmHg 67%
    11:00 +23°C° 0,1 mm 2 m/s 679 mmHg 66%
    12:00 +24°C° 0,1 mm 2 m/s 679 mmHg 66%
    13:00 +24°C° 0,1 mm 2 m/s 679 mmHg 65%
    14:00 +24°C° 0,3 mm 2 m/s 678 mmHg 67%
    15:00 +24°C° 0,3 mm 2 m/s 678 mmHg 70%
    16:00 +24°C° 0,3 mm 2 m/s 678 mmHg 72%
    17:00 +23°C° 0,7 mm 2 m/s 678 mmHg 78%
    18:00 +21°C° 0,7 mm 2 m/s 677 mmHg 83%
    19:00 +21°C° 0,7 mm 2 m/s 677 mmHg 89%
    20:00 +19°C° 0,4 mm 2 m/s 677 mmHg 91%
    21:00 +18°C° 0,4 mm 2 m/s 677 mmHg 92%
    22:00 +17°C° 0,4 mm 2 m/s 676 mmHg 94%
    23:00 +17°C° 0,1 mm 2 m/s 676 mmHg 94%

    27 Iunie, Marţi

    Timp Temperatura Precipitaţii Vânt Presiune Umiditate
    00:00 +16°C° 0,1 mm 2 m/s 676 mmHg 93%
    01:00 +16°C° 0,1 mm 2 m/s 675 mmHg 93%
    02:00 +16°C° 0,1 mm 2 m/s 675 mmHg 93%
    03:00 +16°C° 0,1 mm 2 m/s 675 mmHg 92%
    04:00 +16°C° 0,1 mm 2 m/s 675 mmHg 92%
    05:00 +17°C° 0,1 mm 2 m/s 675 mmHg 91%
    06:00 +18°C° 0,1 mm 2 m/s 675 mmHg 89%
    07:00 +18°C° 0,1 mm 2 m/s 675 mmHg 88%
    08:00 +20°C° 0,1 mm 2 m/s 676 mmHg 82%
    09:00 +22°C° 0,1 mm 1 m/s 676 mmHg 75%
    10:00 +24°C° 0,1 mm 1 m/s 676 mmHg 69%
    11:00 +25°C° 0,6 mm 1 m/s 676 mmHg 67%
    12:00 +25°C° 0,6 mm 1 m/s 676 mmHg 65%
    13:00 +26°C° 0,6 mm 2 m/s 675 mmHg 63%
    14:00 +26°C° 0,9 mm 2 m/s 675 mmHg 65%
    15:00 +26°C° 0,9 mm 2 m/s 675 mmHg 68%
    16:00 +25°C° 0,9 mm 2 m/s 675 mmHg 70%
    17:00 +24°C° 1 mm 1 m/s 675 mmHg 76%
    18:00 +23°C° 1 mm 1 m/s 675 mmHg 82%
    19:00 +22°C° 1 mm 1 m/s 675 mmHg 88%
    20:00 +21°C° 1,2 mm 1 m/s 675 mmHg 90%
    21:00 +19°C° 1,2 mm 1 m/s 674 mmHg 91%
    22:00 +18°C° 1,2 mm 1 m/s 674 mmHg 93%
    23:00 +16°C° 0,8 mm 1 m/s 674 mmHg 94%

    28 Iunie, Miercuri

    Timp Temperatura Precipitaţii Vânt Presiune Umiditate
    00:00 +16°C° 0,8 mm 1 m/s 674 mmHg 94%
    01:00 +15°C° 0,8 mm 1 m/s 674 mmHg 95%
    02:00 +15°C° 0,2 mm 1 m/s 673 mmHg 95%
    03:00 +15°C° 0,2 mm 1 m/s 673 mmHg 94%
    04:00 +15°C° 0,2 mm 1 m/s 673 mmHg 94%
    05:00 +16°C° 0,1 mm 1 m/s 673 mmHg 92%
    06:00 +18°C° 0,1 mm 1 m/s 673 mmHg 89%
    07:00 +20°C° 0,1 mm 1 m/s 673 mmHg 87%
    08:00 +20°C° 0,4 mm 2 m/s 673 mmHg 81%
    09:00 +23°C° 0,4 mm 2 m/s 673 mmHg 76%
    10:00 +24°C° 0,4 mm 2 m/s 673 mmHg 70%
    11:00 +24°C° 1 mm 2 m/s 672 mmHg 69%
    12:00 +25°C° 1 mm 2 m/s 672 mmHg 69%
    13:00 +25°C° 1 mm 2 m/s 671 mmHg 68%
    14:00 +25°C° 0,8 mm 2 m/s 671 mmHg 69%
    15:00 +25°C° 0,8 mm 3 m/s 670 mmHg 70%
    16:00 +25°C° 0,8 mm 3 m/s 669 mmHg 71%
    17:00 +24°C° 0,1 mm 3 m/s 669 mmHg 74%
    18:00 +22°C° 0,1 mm 3 m/s 668 mmHg 77%
    19:00 +21°C° 0,1 mm 3 m/s 668 mmHg 80%
    20:00 +20°C° 0,1 mm 3 m/s 667 mmHg 81%
    21:00 +18°C° 0,1 mm 3 m/s 667 mmHg 82%
    22:00 +17°C° 0,1 mm 3 m/s 667 mmHg 84%
    23:00 +16°C° 0,2 mm 3 m/s 667 mmHg 87%
    Arată mai mult